Total_Precipitation_Accumulation
1.34 1.56 2.29 2.80 2.75 2.12 1.54 1.07 0.86 0.87 0.79 0.60 0.41 0.36 0.54 0.81 1.12 1.45 1.41 1.13 0.74 0.59 0.56 0.76 0.92 0.77 0.68 0.70 0.73 0.79 0.80 0.80 0.83 0.85 0.89 0.68 0.54 0.52 0.48 0.46 0.45 0.42 0.36 0.38 0.48 0.53 0.49 0.41 0.42
1.14 1.97 2.86 3.26 2.53 1.64 1.34 1.03 1.00 0.87 0.62 0.45 0.33 0.29 0.40 0.44 0.35 0.75 1.43 1.47 0.82 0.67 0.66 0.78 0.98 0.85 0.73 0.72 0.81 0.86 0.89 0.90 0.97 0.96 0.83 0.63 0.58 0.57 0.56 0.57 0.58 0.51 0.39 0.38 0.41 0.46 0.46 0.43 0.47
1.32 2.36 2.97 2.96 1.79 1.36 1.28 1.14 0.98 0.66 0.43 0.37 0.34 0.26 0.33 0.48 0.54 0.83 1.30 1.04 0.70 0.71 0.77 1.03 1.12 0.94 0.83 0.78 0.85 0.96 1.02 0.99 1.02 0.96 0.72 0.61 0.59 0.60 0.61 0.65 0.63 0.57 0.50 0.44 0.41 0.42 0.40 0.41 0.42
1.69 2.55 2.64 2.10 1.52 1.11 1.03 1.05 0.72 0.55 0.41 0.31 0.28 0.30 0.36 0.52 0.65 0.76 0.87 0.82 0.68 0.68 0.69 0.88 1.06 0.93 0.84 0.86 0.93 0.93 0.87 0.88 0.95 0.88 0.70 0.59 0.63 0.63 0.64 0.61 0.57 0.58 0.57 0.52 0.49 0.45 0.42 0.43 0.39
2.24 2.72 2.37 1.79 1.39 1.13 0.91 0.73 0.55 0.57 0.47 0.38 0.31 0.40 0.50 0.71 0.79 0.85 0.90 0.86 0.77 0.73 0.66 0.74 0.90 0.84 0.80 0.86 0.93 0.93 0.84 0.87 0.90 0.86 0.80 0.63 0.60 0.64 0.67 0.59 0.53 0.52 0.53 0.51 0.50 0.47 0.44 0.41 0.41
2.54 2.55 2.32 1.89 1.42 1.16 0.94 0.64 0.49 0.51 0.45 0.43 0.41 0.49 0.63 0.84 0.96 1.05 0.93 0.94 0.90 0.79 0.73 0.69 0.80 0.80 0.76 0.79 0.84 0.87 0.85 0.93 0.91 0.79 0.73 0.69 0.60 0.60 0.61 0.57 0.57 0.54 0.54 0.53 0.51 0.46 0.42 0.42 0.43
2.57 2.40 2.09 1.58 1.36 1.34 1.03 0.58 0.46 0.48 0.42 0.41 0.42 0.53 0.65 0.93 1.00 0.95 0.89 0.91 0.93 0.85 0.80 0.76 0.74 0.76 0.81 0.88 0.85 0.85 0.90 1.00 0.97 0.79 0.71 0.72 0.60 0.53 0.52 0.54 0.55 0.55 0.58 0.62 0.55 0.45 0.39 0.43 0.46
1.97 2.06 1.98 1.74 1.51 1.56 1.00 0.56 0.35 0.31 0.33 0.28 0.31 0.47 0.64 0.85 0.84 0.91 0.89 0.91 0.90 0.81 0.76 0.70 0.69 0.73 0.76 0.86 0.88 0.86 0.85 0.94 0.94 0.82 0.81 0.81 0.65 0.54 0.54 0.53 0.57 0.61 0.64 0.70 0.65 0.55 0.48 0.48 0.50
1.81 1.98 2.11 1.99 1.44 1.32 0.84 0.67 0.38 0.22 0.22 0.25 0.26 0.30 0.49 0.54 0.54 0.67 0.79 0.78 0.77 0.71 0.71 0.68 0.65 0.67 0.73 0.81 0.81 0.91 0.93 0.96 0.89 0.82 0.86 0.77 0.57 0.53 0.56 0.51 0.63 0.73 0.87 0.88 0.79 0.70 0.62 0.56 0.49
1.93 1.95 1.88 1.48 0.99 0.83 0.81 0.70 0.39 0.33 0.36 0.36 0.35 0.38 0.59 0.61 0.61 0.70 0.74 0.76 0.72 0.72 0.71 0.67 0.70 0.68 0.67 0.71 0.94 1.11 0.98 0.89 0.78 0.81 0.78 0.76 0.73 0.70 0.52 0.53 0.69 0.76 0.85 0.88 0.82 0.78 0.64 0.47 0.37
1.40 1.47 1.33 1.09 0.72 0.63 0.64 0.52 0.37 0.42 0.49 0.43 0.45 0.52 0.64 0.71 0.67 0.70 0.74 0.75 0.73 0.68 0.68 0.64 0.62 0.57 0.56 0.70 0.88 1.06 1.11 1.07 1.04 0.90 0.89 0.85 0.76 0.65 0.51 0.49 0.54 0.59 0.68 0.67 0.73 0.71 0.51 0.40 0.40
1.16 0.99 0.94 0.88 0.62 0.64 0.60 0.47 0.45 0.45 0.41 0.32 0.36 0.43 0.55 0.63 0.63 0.67 0.71 0.65 0.59 0.58 0.61 0.58 0.55 0.52 0.50 0.50 0.61 0.76 0.83 0.82 0.84 0.85 0.79 0.80 0.81 0.74 0.64 0.58 0.62 0.65 0.63 0.69 0.75 0.73 0.60 0.51 0.43
1.20 1.02 0.83 0.78 0.64 0.65 0.59 0.47 0.41 0.39 0.31 0.29 0.38 0.48 0.55 0.59 0.61 0.58 0.52 0.52 0.52 0.53 0.55 0.56 0.59 0.56 0.61 0.60 0.57 0.56 0.62 0.67 0.72 0.80 0.72 0.67 0.70 0.73 0.75 0.69 0.73 0.70 0.68 0.71 0.72 0.61 0.60 0.59 0.50
1.00 0.96 0.93 0.86 0.76 0.65 0.63 0.50 0.40 0.42 0.35 0.34 0.43 0.51 0.53 0.57 0.57 0.51 0.46 0.42 0.41 0.50 0.61 0.64 0.59 0.62 0.60 0.56 0.59 0.62 0.62 0.66 0.69 0.73 0.66 0.60 0.60 0.62 0.74 0.73 0.78 0.69 0.71 0.79 0.72 0.65 0.67 0.67 0.58
0.77 0.98 1.03 0.87 0.81 0.72 0.66 0.68 0.46 0.44 0.41 0.45 0.46 0.48 0.52 0.55 0.55 0.52 0.48 0.42 0.39 0.45 0.58 0.69 0.67 0.69 0.65 0.60 0.63 0.66 0.66 0.63 0.65 0.69 0.62 0.58 0.61 0.62 0.74 0.78 0.77 0.75 0.78 0.81 0.84 0.83 0.78 0.70 0.62
0.88 1.06 1.27 0.94 0.82 0.73 0.77 0.81 0.53 0.53 0.48 0.47 0.43 0.46 0.46 0.48 0.49 0.50 0.46 0.43 0.42 0.42 0.52 0.64 0.65 0.70 0.73 0.73 0.73 0.70 0.65 0.67 0.72 0.75 0.70 0.66 0.64 0.67 0.87 0.92 0.81 0.86 0.97 1.00 1.01 0.97 0.89 0.79 0.76
1.07 1.11 1.08 0.97 0.76 0.69 0.72 0.68 0.56 0.53 0.50 0.46 0.41 0.38 0.36 0.36 0.39 0.41 0.39 0.40 0.42 0.43 0.48 0.53 0.59 0.78 0.82 0.78 0.84 0.84 0.80 0.86 0.89 0.92 0.89 0.84 0.81 0.89 1.06 1.13 1.04 1.02 1.17 1.14 1.03 1.04 1.04 0.95 0.94
0.84 0.72 0.72 0.80 0.65 0.60 0.64 0.52 0.51 0.49 0.46 0.44 0.41 0.34 0.29 0.29 0.32 0.31 0.29 0.31 0.32 0.37 0.41 0.47 0.55 0.68 0.80 0.95 1.03 1.11 1.12 1.11 1.23 1.30 1.29 1.12 1.07 1.13 1.28 1.38 1.34 1.30 1.41 1.39 1.27 1.35 1.35 1.25 1.27
0.58 0.55 0.62 0.59 0.47 0.50 0.52 0.45 0.46 0.45 0.45 0.38 0.32 0.29 0.26 0.22 0.22 0.19 0.18 0.21 0.24 0.27 0.31 0.37 0.54 0.70 0.86 0.99 1.13 1.38 1.54 1.64 1.63 1.63 1.70 1.62 1.44 1.52 1.63 1.60 1.82 1.89 1.86 1.85 1.80 1.92 1.93 1.66 1.49
0.55 0.56 0.57 0.51 0.38 0.38 0.41 0.40 0.38 0.40 0.38 0.30 0.27 0.26 0.21 0.17 0.15 0.14 0.13 0.14 0.14 0.17 0.22 0.30 0.44 0.68 0.92 1.15 1.33 1.52 1.84 2.00 2.00 2.06 2.01 1.96 1.85 1.87 1.79 1.87 2.08 2.13 2.23 2.32 2.16 2.28 2.33 2.03 1.73
0.51 0.48 0.49 0.46 0.45 0.37 0.34 0.37 0.37 0.36 0.33 0.24 0.19 0.18 0.16 0.12 0.13 0.13 0.11 0.11 0.10 0.10 0.15 0.22 0.34 0.57 0.88 1.19 1.45 1.64 1.88 2.14 2.24 2.15 2.10 2.13 2.21 2.26 2.15 2.11 2.23 2.25 2.32 2.51 2.55 2.49 2.55 2.46 2.16
0.58 0.37 0.35 0.35 0.41 0.45 0.33 0.44 0.39 0.34 0.32 0.25 0.21 0.20 0.18 0.15 0.14 0.12 0.10 0.09 0.10 0.12 0.14 0.18 0.32 0.48 0.72 0.99 1.32 1.57 1.84 2.15 2.22 2.20 2.17 2.21 2.33 2.42 2.38 2.33 2.39 2.39 2.35 2.47 2.56 2.53 2.73 2.88 2.60
0.46 0.29 0.29 0.33 0.32 0.32 0.27 0.37 0.33 0.27 0.31 0.32 0.30 0.27 0.23 0.18 0.17 0.15 0.13 0.13 0.15 0.17 0.19 0.25 0.39 0.54 0.74 0.98 1.30 1.63 1.82 1.99 2.19 2.20 2.12 2.05 2.12 2.14 2.12 2.24 2.39 2.41 2.38 2.39 2.57 2.68 2.85 2.84 2.74
0.32 0.31 0.30 0.29 0.29 0.31 0.21 0.32 0.35 0.29 0.29 0.32 0.32 0.30 0.23 0.16 0.16 0.19 0.24 0.25 0.25 0.27 0.32 0.39 0.51 0.72 0.87 0.97 1.12 1.29 1.50 1.78 1.92 2.02 2.06 2.07 2.07 1.95 1.87 1.98 2.09 2.18 2.23 2.21 2.27 2.42 2.56 2.73 2.87
0.26 0.35 0.44 0.43 0.45 0.39 0.19 0.31 0.39 0.30 0.25 0.28 0.30 0.29 0.26 0.25 0.29 0.35 0.45 0.42 0.40 0.43 0.51 0.57 0.64 0.74 0.79 0.79 0.87 1.00 1.16 1.38 1.52 1.61 1.81 1.88 1.92 1.86 1.81 1.79 1.87 1.95 1.99 2.09 2.26 2.25 2.27 2.45 2.64
0.21 0.26 0.41 0.48 0.43 0.35 0.32 0.44 0.47 0.37 0.29 0.27 0.28 0.25 0.26 0.32 0.41 0.56 0.67 0.72 0.67 0.65 0.66 0.63 0.63 0.61 0.62 0.66 0.73 0.81 0.87 1.02 1.13 1.21 1.37 1.50 1.50 1.48 1.47 1.53 1.63 1.78 1.88 1.98 2.12 2.16 2.12 2.20 2.26
0.18 0.15 0.18 0.28 0.26 0.29 0.39 0.54 0.52 0.36 0.29 0.28 0.29 0.26 0.31 0.44 0.58 0.74 0.87 0.94 0.90 0.81 0.74 0.69 0.69 0.66 0.59 0.61 0.69 0.76 0.81 0.82 0.85 0.89 0.88 0.97 1.06 1.09 1.14 1.20 1.34 1.54 1.68 1.75 1.86 2.00 1.99 2.05 2.05
0.13 0.13 0.16 0.32 0.44 0.45 0.44 0.55 0.62 0.50 0.39 0.37 0.40 0.46 0.57 0.74 0.81 0.92 0.99 0.98 0.97 1.02 0.96 0.79 0.72 0.72 0.66 0.74 0.75 0.73 0.71 0.70 0.68 0.72 0.77 0.78 0.87 0.98 1.08 1.09 1.17 1.29 1.39 1.50 1.68 1.82 1.90 1.93 1.89
0.13 0.17 0.25 0.39 0.47 0.64 0.75 0.85 0.71 0.58 0.57 0.55 0.58 0.75 0.83 0.93 1.00 1.02 1.09 1.02 0.90 0.90 0.88 0.86 0.81 0.75 0.76 0.81 0.81 0.71 0.68 0.68 0.68 0.65 0.68 0.76 0.85 0.95 1.01 1.06 1.11 1.15 1.24 1.30 1.41 1.56 1.70 1.73 1.74
0.25 0.38 0.48 0.66 0.67 0.67 0.91 1.09 0.80 0.65 0.67 0.68 0.68 0.66 0.66 0.83 0.95 0.98 1.05 0.97 0.82 0.77 0.68 0.72 0.80 0.81 0.87 0.87 0.81 0.72 0.72 0.75 0.80 0.78 0.70 0.71 0.77 0.79 0.90 1.04 1.04 1.05 1.10 1.18 1.29 1.39 1.45 1.54 1.51